Location: Dyersburg
(36.0438°N, 89.3789°W)
Time: 09:40:24
(UTC+00:00)

Vanguard 2 - Visible Passes

Search period start: 17 February 2020 00:00
Search period end: 27 February 2020 00:00
Orbit: 552 x 2939 km, 32.9° (Epoch: 17 February)

Date Brightness Start Highest point End Pass type
(mag) Time Alt. Az. Time Alt. Az. Time Alt. Az.
17 Feb 11.3 07:20:21 17° ESE 07:20:21 17° ESE 07:24:31 10° E visible
17 Feb 9.9 09:21:45 55° S 09:23:29 58° SSE 09:40:04 10° E visible
17 Feb 10.3 11:23:10 19° WSW 11:35:24 79° S 11:53:32 10° E visible
18 Feb 11.1 07:37:13 23° ESE 07:37:13 23° ESE 07:43:38 10° E visible
18 Feb 9.8 09:38:38 58° SSW 09:41:18 66° SSE 09:58:22 10° E visible
18 Feb 10.4 11:40:02 14° W 11:53:35 80° S 12:11:43 10° E visible
19 Feb 10.8 07:54:03 30° ESE 07:54:03 30° ESE 08:02:21 10° E visible
19 Feb 9.7 09:55:28 55° SW 09:59:15 72° SSE 10:16:39 10° E visible
19 Feb 10.4 11:56:52 10° W 12:11:47 79° S 12:29:51 10° ESE visible
20 Feb 10.5 08:10:51 38° ESE 08:10:51 38° ESE 08:20:49 10° E visible
20 Feb 9.8 10:12:15 48° WSW 10:17:18 77° S 10:34:54 10° E visible
21 Feb 10.2 08:27:38 48° ESE 08:27:38 48° ESE 08:39:11 10° E visible
21 Feb 9.9 10:29:02 40° WSW 10:35:24 79° S 10:53:10 10° E visible
22 Feb 9.9 08:44:24 58° ESE 08:44:24 58° ESE 08:57:29 10° E visible
22 Feb 10.0 10:45:48 33° W 10:53:33 79° S 11:11:23 10° E visible
23 Feb 11.3 06:59:46 14° E 06:59:46 14° E 07:01:36 10° E visible
23 Feb 9.6 09:01:09 69° SE 09:01:09 69° SE 09:15:47 10° E visible
23 Feb 10.1 11:02:33 26° W 11:11:41 77° S 11:29:33 10° ESE visible
24 Feb 11.1 07:16:31 19° E 07:16:31 19° E 07:20:02 10° E visible
24 Feb 9.4 09:17:55 76° S 09:18:01 76° S 09:34:04 10° E visible
24 Feb 10.2 11:19:18 20° W 11:29:49 73° SSW 11:47:37 10° ESE visible
25 Feb 10.9 07:33:17 25° E 07:33:17 25° E 07:38:21 10° E visible
25 Feb 9.3 09:34:40 72° SW 09:36:03 78° S 09:52:20 10° E visible
25 Feb 10.3 11:36:04 14° W 11:47:53 66° SSW 12:05:30 10° ESE visible
26 Feb 10.6 07:50:04 31° E 07:50:04 31° E 07:56:38 10° E visible
26 Feb 9.4 09:51:28 61° WSW 09:54:08 77° S 10:10:34 10° ESE visible
26 Feb 10.4 11:52:55 10° W 12:05:54 59° SSW 12:23:13 10° SE visible
